�������l�o���
Date,Time,MP-1(��Sv/h),MP-2(��Sv/h),MP-3(��Sv/h),MP-4(��Sv/h),MP-5(��Sv/h),MP-6(��Sv/h),MP-7(��Sv/h),MP-8(��Sv/h),����,����(m/s),���J
2018/04/04,00:00,0.884,1.473,0.921,1.721,1.177,0.492,0.863,0.824,���쐼,5.2,��
2018/04/04,00:10,0.882,1.474,0.919,1.722,1.177,0.491,0.862,0.825,��,6.2,��
2018/04/04,00:20,0.885,1.475,0.919,1.722,1.177,0.492,0.863,0.823,��,2.3,��
2018/04/04,00:30,0.885,1.474,0.919,1.723,1.176,0.490,0.862,0.825,��,3.1,��
2018/04/04,00:40,0.887,1.475,0.918,1.721,1.175,0.491,0.863,0.826,��,4.3,��
2018/04/04,00:50,0.885,1.471,0.920,1.720,1.173,0.491,0.862,0.824,��,4.6,��
2018/04/04,01:00,0.884,1.472,0.916,1.720,1.175,0.491,0.863,0.823,��,7.3,��
2018/04/04,01:10,0.884,1.471,0.920,1.721,1.174,0.491,0.864,0.826,��,7.5,��
2018/04/04,01:20,0.884,1.471,0.920,1.723,1.176,0.491,0.864,0.828,��,6.2,��
2018/04/04,01:30,0.884,1.475,0.919,1.721,1.176,0.491,0.865,0.825,��,6.1,��
2018/04/04,01:40,0.884,1.477,0.919,1.722,1.177,0.493,0.862,0.824,��,5.3,��
2018/04/04,01:50,0.883,1.473,0.918,1.724,1.174,0.491,0.863,0.826,��,4.9,��
2018/04/04,02:00,0.884,1.473,0.919,1.723,1.176,0.492,0.864,0.825,��,3.7,��
2018/04/04,02:10,0.886,1.472,0.920,1.724,1.175,0.490,0.863,0.826,��,4.2,��
2018/04/04,02:20,0.884,1.472,0.918,1.723,1.175,0.493,0.861,0.825,��,3.3,��
2018/04/04,02:30,0.885,1.474,0.920,1.723,1.176,0.491,0.863,0.826,���쐼,2.0,��
2018/04/04,02:40,0.885,1.468,0.919,1.723,1.175,0.492,0.863,0.827,���쐼,4.5,��
2018/04/04,02:50,0.883,1.473,0.922,1.722,1.175,0.492,0.863,0.824,��,4.3,��
2018/04/04,03:00,0.885,1.473,0.920,1.721,1.176,0.492,0.861,0.827,��,5.4,��
2018/04/04,03:10,0.885,1.474,0.922,1.722,1.174,0.491,0.862,0.824,��,6.3,��
2018/04/04,03:20,0.885,1.473,0.921,1.723,1.176,0.491,0.862,0.823,��,4.2,��
2018/04/04,03:30,0.885,1.473,0.919,1.721,1.177,0.493,0.863,0.826,���k��,2.6,��
2018/04/04,03:40,0.884,1.474,0.919,1.722,1.176,0.491,0.864,0.825,���k��,1.7,��
2018/04/04,03:50,0.883,1.472,0.919,1.723,1.176,0.491,0.862,0.825,���k��,0.6,��
2018/04/04,04:00,0.884,1.471,0.920,1.720,1.174,0.491,0.862,0.824,�쓌,0.9,��
2018/04/04,04:10,0.887,1.473,0.918,1.720,1.177,0.492,0.862,0.824,��,1.7,��
2018/04/04,04:20,0.883,1.473,0.917,1.719,1.177,0.491,0.863,0.825,��,6.4,��
2018/04/04,04:30,0.883,1.473,0.919,1.722,1.174,0.491,0.865,0.825,��,6.1,��
2018/04/04,04:40,0.884,1.472,0.921,1.719,1.177,0.493,0.864,0.827,��,7.3,��
2018/04/04,04:50,0.883,1.471,0.919,1.722,1.175,0.492,0.863,0.826,��,8.0,��
2018/04/04,05:00,0.884,1.473,0.921,1.725,1.176,0.493,0.863,0.825,��,7.5,��
2018/04/04,05:10,0.884,1.472,0.920,1.721,1.177,0.491,0.862,0.826,��,7.8,��
2018/04/04,05:20,0.883,1.471,0.919,1.722,1.176,0.490,0.864,0.825,���k��,7.4,��
2018/04/04,05:30,0.884,1.471,0.920,1.723,1.179,0.490,0.862,0.827,��,9.3,��
2018/04/04,05:40,0.885,1.472,0.919,1.725,1.176,0.491,0.861,0.827,��,9.8,��
2018/04/04,05:50,0.884,1.472,0.920,1.724,1.174,0.493,0.863,0.826,��,8.7,��
2018/04/04,06:00,0.884,1.472,0.919,1.727,1.178,0.491,0.864,0.826,��,7.8,��
2018/04/04,06:10,0.884,1.474,0.921,1.724,1.178,0.490,0.863,0.826,���k��,6.2,��
2018/04/04,06:20,0.885,1.472,0.920,1.721,1.177,0.490,0.863,0.826,���k��,3.9,��
2018/04/04,06:30,0.884,1.472,0.922,1.723,1.177,0.491,0.862,0.825,-,CALM,��
2018/04/04,06:40,0.882,1.474,0.920,1.722,1.176,0.491,0.865,0.825,�쓌,2.8,��
2018/04/04,06:50,0.883,1.474,0.919,1.722,1.178,0.492,0.861,0.825,��,3.4,��
2018/04/04,07:00,0.882,1.476,0.919,1.726,1.175,0.491,0.865,0.826,��쓌,3.2,��
2018/04/04,07:10,0.883,1.474,0.918,1.726,1.177,0.491,0.863,0.826,��쓌,2.8,��
2018/04/04,07:20,0.885,1.470,0.919,1.724,1.174,0.491,0.864,0.826,��,2.9,��
2018/04/04,07:30,0.884,1.470,0.920,1.724,1.177,0.490,0.862,0.825,��쐼,2.8,��
2018/04/04,07:40,0.884,1.471,0.920,1.723,1.172,0.491,0.865,0.825,���쐼,3.8,��
2018/04/04,07:50,0.886,1.472,0.920,1.718,1.176,0.489,0.865,0.824,��,4.1,��
2018/04/04,08:00,0.886,1.469,0.919,1.720,1.173,0.490,0.865,0.826,���k��,4.0,��
2018/04/04,08:10,0.885,1.469,0.919,1.724,1.177,0.488,0.863,0.827,��,6.2,��
2018/04/04,08:20,0.883,1.470,0.919,1.722,1.177,0.490,0.863,0.826,�k�k��,2.3,��
2018/04/04,08:30,0.884,1.469,0.916,1.722,1.177,0.487,0.860,0.825,�k��,4.7,��
2018/04/04,08:40,0.881,1.470,0.917,1.724,1.176,0.487,0.860,0.824,�k�k��,3.9,��
2018/04/04,08:50,0.880,1.469,0.916,1.722,1.174,0.488,0.861,0.821,�k��,4.8,��
2018/04/04,09:00,0.881,1.469,0.917,1.724,1.176,0.489,0.860,0.823,�k��,4.6,��
2018/04/04,09:10,0.882,1.469,0.917,1.725,1.174,0.487,0.859,0.823,�k�k��,4.4,��
2018/04/04,09:20,0.882,1.470,0.915,1.725,1.176,0.489,0.859,0.823,�k�k��,4.4,��
2018/04/04,09:30,0.884,1.470,0.916,1.726,1.174,0.488,0.861,0.821,�k,3.1,��
2018/04/04,09:40,0.885,1.471,0.915,1.725,1.176,0.488,0.862,0.823,�k�k��,3.4,��
2018/04/04,09:50,0.885,1.472,0.917,1.722,1.175,0.488,0.861,0.823,�k�k��,2.9,��
2018/04/04,10:00,0.887,1.471,0.916,1.722,1.178,0.488,0.861,0.822,�k,3.7,��
2018/04/04,10:10,0.886,1.474,0.917,1.724,1.178,0.488,0.861,0.823,�k,4.6,��
2018/04/04,10:20,0.887,1.474,0.917,1.724,1.177,0.488,0.862,0.823,�k�k��,5.0,��
2018/04/04,10:30,0.889,1.474,0.915,1.724,1.178,0.488,0.860,0.822,�k�k��,5.4,��
2018/04/04,10:40,0.890,1.473,0.918,1.723,1.177,0.488,0.863,0.823,�k�k��,5.6,��
2018/04/04,10:50,0.890,1.473,0.918,1.725,1.179,0.487,0.863,0.825,�k�k��,4.5,��
2018/04/04,11:00,0.888,1.472,0.918,1.724,1.178,0.488,0.860,0.822,�k�k��,3.9,��
2018/04/04,11:10,0.888,1.474,0.918,1.722,1.177,0.488,0.860,0.825,�k�k��,4.3,��
2018/04/04,11:20,0.890,1.475,0.918,1.726,1.179,0.487,0.862,0.822,�k�k��,5.3,��
2018/04/04,11:30,0.888,1.477,0.918,1.727,1.179,0.488,0.861,0.823,�k�k��,4.9,��
2018/04/04,11:40,0.891,1.476,0.918,1.727,1.180,0.487,0.861,0.825,�k�k��,5.4,��
2018/04/04,11:50,0.889,1.475,0.917,1.723,1.180,0.489,0.862,0.824,�k,5.3,��
2018/04/04,12:00,0.889,1.479,0.918,1.725,1.181,0.487,0.863,0.823,�k,6.1,��
2018/04/04,12:10,0.888,1.474,0.917,1.724,1.181,0.488,0.862,0.823,�k,6.2,��
2018/04/04,12:20,0.887,1.475,0.916,1.722,1.182,0.488,0.862,0.822,�k,5.6,��
2018/04/04,12:30,0.888,1.475,0.918,1.721,1.181,0.486,0.861,0.825,�k�k��,6.1,��
2018/04/04,12:40,0.888,1.477,0.917,1.724,1.178,0.488,0.862,0.824,�k�k��,4.3,��
2018/04/04,12:50,0.890,1.476,0.917,1.726,1.182,0.487,0.862,0.824,�k�k��,6.1,��
2018/04/04,13:00,0.891,1.478,0.918,1.723,1.181,0.486,0.862,0.824,�k,5.6,��
2018/04/04,13:10,0.890,1.476,0.919,1.721,1.180,0.486,0.862,0.825,�k�k��,5.3,��
2018/04/04,13:20,0.889,1.475,0.919,1.725,1.181,0.488,0.864,0.823,�k�k��,6.1,��
2018/04/04,13:30,0.888,1.473,0.917,1.726,1.180,0.488,0.864,0.824,�k,6.6,��
2018/04/04,13:40,0.890,1.475,0.920,1.724,1.183,0.487,0.863,0.823,�k,6.5,��
2018/04/04,13:50,0.892,1.474,0.916,1.724,1.181,0.489,0.862,0.825,�k�k��,5.0,��
2018/04/04,14:00,0.889,1.473,0.919,1.723,1.184,0.487,0.863,0.823,�k�k��,5.9,��
2018/04/04,14:10,0.889,1.474,0.919,1.724,1.182,0.486,0.863,0.823,�k�k��,6.0,��
2018/04/04,14:20,0.890,1.474,0.920,1.724,1.181,0.486,0.864,0.822,�k�k��,5.3,��
2018/04/04,14:30,0.889,1.476,0.918,1.725,1.181,0.487,0.862,0.823,�k,5.5,��
2018/04/04,14:40,0.890,1.475,0.918,1.723,1.182,0.486,0.863,0.824,�k,5.0,��
2018/04/04,14:50,0.889,1.473,0.916,1.724,1.181,0.486,0.862,0.823,�k,4.4,��
2018/04/04,15:00,0.890,1.474,0.918,1.724,1.181,0.486,0.863,0.822,�k,4.9,��
2018/04/04,15:10,0.889,1.475,0.918,1.724,1.179,0.485,0.865,0.823,�k,4.8,��
2018/04/04,15:20,0.890,1.474,0.917,1.723,1.182,0.486,0.863,0.822,�k,4.2,��
2018/04/04,15:30,0.889,1.471,0.915,1.725,1.181,0.486,0.861,0.823,�k,4.7,��
2018/04/04,15:40,0.888,1.473,0.918,1.724,1.180,0.485,0.864,0.823,�k�k��,3.9,��
2018/04/04,15:50,0.890,1.475,0.916,1.726,1.180,0.486,0.863,0.825,�k�k��,3.6,��
2018/04/04,16:00,0.890,1.476,0.918,1.726,1.178,0.489,0.862,0.822,�k,4.5,��
2018/04/04,16:10,0.885,1.476,0.917,1.724,1.180,0.488,0.863,0.824,�k,4.9,��
2018/04/04,16:20,0.888,1.475,0.915,1.726,1.179,0.490,0.861,0.822,�k,4.5,��
2018/04/04,16:30,0.889,1.474,0.917,1.725,1.182,0.486,0.863,0.823,�k,5.6,��
2018/04/04,16:40,0.889,1.476,0.917,1.722,1.180,0.487,0.861,0.823,�k,5.5,��
2018/04/04,16:50,0.891,1.478,0.919,1.723,1.179,0.487,0.860,0.825,�k,4.8,��
2018/04/04,17:00,0.889,1.475,0.918,1.725,1.179,0.485,0.863,0.824,�k,7.8,��
2018/04/04,17:10,0.891,1.474,0.919,1.722,1.179,0.488,0.860,0.824,�k,8.1,��
2018/04/04,17:20,0.890,1.476,0.920,1.724,1.179,0.487,0.863,0.825,�k,12.0,��
2018/04/04,17:30,0.890,1.477,0.922,1.722,1.180,0.486,0.859,0.822,�k,9.9,��
2018/04/04,17:40,0.889,1.477,0.919,1.723,1.175,0.485,0.859,0.824,�k,12.5,��
2018/04/04,17:50,0.890,1.474,0.918,1.723,1.177,0.485,0.858,0.822,�k,10.3,�L
2018/04/04,18:00,0.888,1.473,0.918,1.721,1.175,0.486,0.858,0.823,�k,8.6,�L
2018/04/04,18:10,0.889,1.471,0.917,1.722,1.179,0.488,0.859,0.822,�k�k��,7.8,��
2018/04/04,18:20,0.889,1.474,0.919,1.728,1.179,0.487,0.860,0.823,�k,6.1,��
2018/04/04,18:30,0.889,1.478,0.919,1.724,1.178,0.488,0.859,0.824,�k,8.6,�L
2018/04/04,18:40,0.889,1.479,0.919,1.721,1.179,0.485,0.858,0.824,�k,8.8,�L
2018/04/04,18:50,0.888,1.477,0.918,1.725,1.178,0.486,0.857,0.824,�k,11.3,�L
2018/04/04,19:00,0.888,1.477,0.916,1.722,1.177,0.486,0.858,0.824,�k,11.0,�L
2018/04/04,19:10,0.888,1.478,0.918,1.721,1.181,0.487,0.858,0.824,�k�k��,9.4,��
2018/04/04,19:20,0.889,1.476,0.917,1.721,1.178,0.487,0.857,0.824,�k,9.0,��
2018/04/04,19:30,0.888,1.479,0.919,1.724,1.181,0.487,0.856,0.825,�k,7.1,��
2018/04/04,19:40,0.888,1.478,0.917,1.721,1.182,0.487,0.857,0.825,�k�k��,9.1,��
2018/04/04,19:50,0.887,1.476,0.914,1.719,1.180,0.484,0.859,0.826,�k,8.7,��
2018/04/04,20:00,0.886,1.476,0.916,1.722,1.179,0.486,0.857,0.826,�k�k��,7.0,�L
2018/04/04,20:10,0.886,1.476,0.915,1.722,1.182,0.486,0.857,0.826,�k�k��,7.6,��
2018/04/04,20:20,0.886,1.477,0.917,1.724,1.179,0.486,0.857,0.826,�k�k��,6.4,�L
2018/04/04,20:30,0.888,1.475,0.915,1.723,1.180,0.487,0.858,0.823,�k�k��,5.4,�L
2018/04/04,20:40,0.887,1.475,0.919,1.724,1.181,0.485,0.858,0.825,�k,6.2,�L
2018/04/04,20:50,0.885,1.476,0.916,1.723,1.179,0.485,0.857,0.824,�k,5.9,��
2018/04/04,21:00,0.888,1.475,0.916,1.723,1.178,0.486,0.858,0.825,�k,4.4,��
2018/04/04,21:10,0.886,1.473,0.916,1.723,1.183,0.486,0.858,0.825,�k,2.0,��
2018/04/04,21:20,0.889,1.476,0.918,1.719,1.182,0.487,0.859,0.823,�k��,2.2,��
2018/04/04,21:30,0.887,1.478,0.917,1.721,1.180,0.486,0.861,0.824,�k��,3.3,��
2018/04/04,21:40,0.886,1.475,0.916,1.722,1.180,0.486,0.860,0.825,�k�k��,5.3,��
2018/04/04,21:50,0.886,1.477,0.917,1.722,1.178,0.487,0.860,0.826,�k�k��,5.1,��
2018/04/04,22:00,0.888,1.475,0.916,1.723,1.180,0.487,0.861,0.825,�k�k��,4.1,��
2018/04/04,22:10,0.888,1.477,0.918,1.723,1.179,0.487,0.858,0.827,�k��,4.4,��
2018/04/04,22:20,0.887,1.475,0.918,1.721,1.181,0.487,0.861,0.822,�k��,5.8,��
2018/04/04,22:30,0.888,1.477,0.919,1.724,1.179,0.486,0.862,0.825,�k��,5.2,��
2018/04/04,22:40,0.888,1.477,0.918,1.722,1.178,0.485,0.862,0.824,�k��,8.3,��
2018/04/04,22:50,0.887,1.477,0.917,1.721,1.179,0.487,0.859,0.825,�k��,11.0,��
2018/04/04,23:00,0.888,1.478,0.919,1.720,1.180,0.486,0.859,0.826,���k��,10.3,��
2018/04/04,23:10,0.888,1.475,0.918,1.722,1.179,0.485,0.860,0.824,���k��,9.5,��
2018/04/04,23:20,0.884,1.476,0.916,1.724,1.180,0.486,0.859,0.825,���k��,10.9,��
2018/04/04,23:30,0.885,1.477,0.918,1.724,1.179,0.487,0.859,0.825,���k��,11.0,��
2018/04/04,23:40,0.886,1.475,0.918,1.720,1.179,0.486,0.858,0.824,��,9.9,��
2018/04/04,23:50,0.885,1.472,0.918,1.720,1.180,0.485,0.859,0.824,��,10.7,��
